Wind_Speed
23 22 21 19 18 18 18 17 17 16 15 15 15 14 15 15 15 15 15 15 15 15 14 13 13 12 13 13 14 14 15 14 14 14 13 13 12 12 13 13 12 12 11 11 11 10 10 10 11 11 11 11 11 11 11 11 10 10 10 9 9 9 9 8 7 7 6 6 6
24 23 22 20 19 18 18 18 17 17 16 15 15 15 15 15 15 15 15 16 15 15 14 13 13 13 13 14 14 15 15 15 15 14 14 14 14 14 14 13 13 12 11 11 11 11 10 10 10 11 11 11 11 11 11 11 10 10 9 9 9 9 9 9 8 7 6 6 6
25 24 23 22 20 19 19 19 18 18 17 17 16 15 15 16 16 16 16 16 16 15 15 14 14 14 14 15 15 15 15 15 15 15 15 15 15 15 15 14 13 12 11 11 11 11 11 11 11 11 11 11 10 10 10 10 10 9 9 9 8 9 9 9 9 8 7 6 6
25 25 24 24 22 21 21 21 20 19 18 18 17 16 16 16 16 16 16 16 16 16 16 16 15 15 15 15 15 15 15 14 15 15 15 15 15 15 15 14 13 12 11 11 11 11 11 11 11 11 11 11 10 10 9 8 8 8 8 9 9 9 9 9 9 9 8 8 8
26 26 26 25 24 23 22 22 21 20 20 19 18 17 17 17 17 17 17 17 17 17 17 17 17 17 16 16 16 15 15 15 15 15 15 15 15 15 14 14 13 12 11 11 11 12 12 12 12 12 11 11 11 10 9 8 8 8 9 9 9 10 9 9 9 9 9 9 9
27 27 27 26 26 24 23 23 22 21 21 20 19 19 19 19 19 19 18 18 18 18 18 18 18 18 18 17 16 16 15 15 15 15 15 14 14 14 14 13 12 12 12 11 11 12 12 12 12 12 12 12 12 11 10 9 9 9 9 9 10 10 10 10 10 10 10 10 10
27 27 27 27 27 26 25 24 23 22 22 21 21 21 21 21 21 20 20 20 19 19 19 19 19 19 19 18 18 17 16 16 16 15 15 15 14 14 14 13 12 12 12 12 11 12 12 12 12 12 12 12 12 12 12 11 11 11 10 10 10 10 10 10 10 10 10 10 10
27 27 28 28 28 27 26 25 24 23 23 23 23 23 23 22 22 22 22 22 21 21 20 20 20 20 20 20 19 18 18 17 17 17 16 16 15 15 14 14 13 13 13 12 12 12 12 12 12 12 12 12 12 12 13 13 12 12 11 10 10 9 9 10 11 11 11 11 11
27 28 28 28 29 28 28 27 26 25 24 24 24 24 24 24 24 24 24 23 23 22 22 22 21 21 21 20 20 20 19 19 18 18 17 17 16 16 15 15 15 14 14 13 13 12 12 12 12 12 12 12 11 11 12 13 12 12 12 12 11 10 9 10 11 11 12 12 12
28 28 28 28 29 29 29 28 27 27 26 25 25 25 24 24 24 25 25 25 24 23 23 23 23 22 22 21 21 21 20 20 19 19 18 18 17 17 17 16 16 15 15 14 14 13 13 12 12 12 12 12 12 11 11 12 12 12 12 13 12 11 10 10 11 11 12 12 12
28 28 28 28 29 29 29 28 28 27 27 26 26 25 25 25 25 25 25 24 24 24 24 24 24 23 23 23 22 22 21 21 21 20 19 19 19 18 18 18 17 17 16 16 15 14 13 13 13 13 13 13 13 12 12 12 12 12 13 13 14 13 12 12 11 11 12 12 13
27 27 27 27 28 28 28 29 28 28 28 27 26 26 26 26 25 25 24 24 24 24 25 25 25 24 24 23 23 22 22 22 22 22 21 20 20 20 19 19 18 18 17 16 16 15 14 14 13 13 13 13 14 13 13 13 13 13 13 14 15 15 15 14 13 12 12 12 12
26 26 26 26 27 27 28 29 29 29 29 28 27 27 26 26 26 25 24 24 24 24 25 25 25 25 24 24 23 23 23 23 23 23 22 22 22 21 21 20 19 19 18 17 16 16 15 15 14 14 14 14 14 15 15 15 14 14 15 15 15 16 16 16 15 13 13 13 13
26 26 26 26 26 26 27 28 29 29 29 29 28 27 27 26 26 25 25 25 24 24 24 25 24 24 24 24 24 23 23 23 24 24 23 23 23 22 22 21 20 20 19 18 17 16 16 15 15 15 15 15 15 15 16 16 16 16 16 16 16 16 17 17 17 16 15 14 14
27 26 26 26 26 26 27 28 29 29 30 30 29 28 27 27 26 26 25 25 25 25 25 25 25 24 24 23 23 23 23 24 24 23 23 23 23 23 22 22 21 20 20 19 18 17 16 16 16 16 15 15 15 15 16 16 16 17 17 17 16 17 17 17 18 18 17 17 16
28 27 27 26 26 27 27 28 29 29 30 30 29 29 28 27 27 26 26 26 25 25 25 25 25 24 24 23 23 23 24 24 23 23 23 23 23 23 22 22 21 21 20 19 18 17 17 17 16 16 16 16 16 15 16 16 16 16 17 17 17 17 17 17 18 18 19 19 19
29 29 28 28 28 28 28 29 29 29 29 30 30 29 29 28 27 27 27 27 26 26 26 26 25 25 24 24 24 24 24 24 23 23 23 23 23 22 22 22 21 21 20 19 19 18 18 17 17 17 17 17 17 16 16 16 16 16 16 17 17 17 17 17 17 18 19 20 20
30 30 30 29 29 30 30 30 30 30 30 30 30 29 29 29 28 28 28 28 27 27 27 26 26 25 25 25 25 25 24 24 24 23 23 23 22 22 22 21 21 20 20 20 19 19 19 18 18 18 18 18 18 18 17 17 16 16 17 17 17 17 17 17 17 17 18 19 19
32 31 31 31 31 31 31 31 30 30 30 30 29 29 30 30 29 29 29 29 29 28 27 27 27 26 26 25 25 25 25 24 24 24 23 23 22 22 21 21 21 20 20 20 20 20 20 19 19 19 18 18 18 18 18 18 18 18 17 17 17 17 17 17 17 17 17 18 18
33 33 33 33 33 33 32 32 31 31 30 29 29 29 29 30 30 30 29 29 29 29 28 28 27 27 26 26 25 25 25 24 24 24 23 23 22 22 22 21 21 20 20 20 20 20 20 20 19 19 18 18 18 18 18 18 19 19 18 18 18 18 18 18 18 18 18 17 17
34 35 35 35 34 34 33 33 32 31 30 29 29 29 29 29 30 30 30 30 30 29 28 28 28 28 27 26 26 25 25 25 24 24 24 24 23 23 22 22 21 21 20 20 20 20 20 20 20 19 19 18 18 18 18 18 18 19 19 19 19 19 19 19 18 18 18 18 18
36 36 36 35 35 34 33 33 32 31 30 30 29 29 29 29 29 30 30 29 29 29 28 28 28 28 27 27 26 25 25 25 24 24 24 24 23 23 22 22 21 21 20 20 20 20 20 20 20 19 19 18 18 18 17 18 18 18 18 18 18 19 19 19 18 18 18 18 18
36 35 35 34 34 34 33 32 31 31 30 30 29 29 29 29 29 29 28 28 28 28 28 28 28 28 27 27 26 25 25 24 24 24 24 24 23 23 22 22 21 21 21 21 20 20 20 20 20 20 19 19 18 18 18 17 17 17 17 18 18 18 18 18 18 18 18 18 18
34 34 34 33 33 33 32 32 31 31 31 31 30 30 29 29 28 28 28 28 28 28 28 28 27 27 27 26 25 25 24 24 24 24 24 23 23 23 22 22 22 21 21 21 20 20 19 20 20 20 20 20 19 19 18 18 18 17 17 17 17 17 17 17 18 18 18 18 18
33 33 33 32 32 32 32 32 32 32 32 31 31 30 29 29 28 28 28 28 28 28 27 27 27 26 26 25 25 25 24 24 24 24 23 23 22 22 22 22 22 21 21 21 20 19 19 19 20 20 20 20 20 19 19 19 19 18 18 17 17 17 17 17 17 18 18 18 18
32 32 32 32 32 32 32 32 33 33 32 32 31 30 30 29 29 28 28 28 28 27 27 26 26 26 25 25 24 24 24 24 24 24 23 23 22 22 21 21 21 21 21 20 19 19 18 18 19 19 20 21 21 20 20 19 19 19 19 18 18 17 17 17 17 18 18 18 18
31 31 32 32 32 32 33 33 33 32 32 32 31 31 30 29 29 28 28 28 27 27 26 25 25 25 25 24 24 24 24 24 24 23 23 22 22 22 22 22 21 21 21 20 19 18 18 18 18 18 19 20 21 21 21 20 20 19 19 19 19 18 18 18 18 18 18 18 18
31 32 32 32 32 32 33 33 32 32 32 32 32 31 30 29 29 28 28 28 27 26 25 25 25 24 24 24 24 24 24 24 24 23 23 22 22 22 22 22 22 22 21 20 19 18 17 18 18 18 18 19 20 20 20 20 20 19 19 19 19 19 19 19 19 18 18 18 18
32 32 31 31 32 32 33 32 33 33 33 32 32 31 30 29 29 29 28 27 27 26 25 25 25 24 24 24 25 24 24 24 23 23 23 22 23 23 23 23 22 22 21 20 19 18 18 18 18 18 18 18 19 19 19 19 19 19 19 19 19 20 20 20 19 19 19 18 18
31 31 31 31 32 32 33 33 33 33 33 32 31 30 30 29 29 29 28 27 27 27 26 25 25 25 26 26 26 25 24 24 23 23 23 23 23 24 24 23 23 22 21 20 19 18 18 18 19 19 19 18 18 19 19 19 19 19 19 19 19 19 19 19 19 18 18 18 18
30 30 30 31 31 32 33 33 33 32 31 31 30 30 29 29 29 29 28 28 27 27 26 25 25 26 27 27 26 25 25 24 24 24 24 24 24 24 24 23 23 23 22 20 19 18 18 18 19 19 19 19 19 19 19 19 19 19 18 18 19 18 18 17 17 17 17 16 17
29 29 30 30 31 32 32 32 31 31 31 30 30 30 30 29 29 29 28 28 27 26 25 25 26 26 27 27 27 26 26 26 25 25 25 25 24 24 24 23 23 23 22 20 19 18 18 19 19 19 20 20 20 20 20 20 20 19 19 18 18 18 17 16 16 16 15 15 15
28 29 29 30 30 31 30 30 30 30 30 30 30 30 30 29 29 28 27 27 26 26 26 27 27 27 27 27 27 27 27 26 26 26 25 25 24 24 23 23 23 23 22 20 19 19 19 19 19 19 20 20 21 21 22 21 21 20 19 19 18 17 17 16 16 15 15 15 15
28 29 29 30 29 29 29 29 29 29 29 29 30 30 29 28 27 27 27 27 27 27 28 28 28 28 28 28 27 27 27 26 26 25 25 24 24 24 23 23 23 22 21 20 20 19 19 19 20 20 20 20 21 22 22 22 22 21 20 20 19 18 18 17 17 16 16 15 15
28 29 29 29 29 28 28 28 29 29 29 29 29 29 28 28 28 28 28 28 28 28 28 28 28 27 27 27 27 27 26 26 26 25 25 24 24 24 24 24 23 22 21 20 19 19 20 20 20 20 20 19 21 22 23 23 23 23 22 21 20 20 19 19 18 18 18 17 17
29 29 29 29 29 28 28 29 29 29 29 29 28 28 28 28 28 29 29 28 27 27 27 27 27 26 26 26 27 27 26 26 26 25 24 24 24 23 24 24 23 22 20 19 19 19 20 20 20 20 20 20 21 22 23 23 23 23 22 22 22 21 20 20 20 20 19 19 19
30 30 30 29 28 28 29 29 29 29 29 29 29 29 28 28 28 28 28 27 27 27 27 27 27 27 27 28 27 27 27 26 25 25 24 24 23 23 23 23 22 21 20 19 19 19 19 20 20 20 20 20 21 22 22 22 22 22 22 22 22 22 21 20 20 20 21 21 20
30 30 30 30 29 29 29 29 29 29 30 30 29 29 29 28 28 28 28 28 28 28 28 28 28 28 29 28 28 27 26 25 25 24 24 24 23 23 23 22 22 21 19 18 18 18 19 19 19 20 20 21 22 22 22 22 21 21 21 21 21 21 21 20 20 20 21 21 21
30 30 30 30 29 29 29 29 30 31 31 30 29 29 28 28 28 28 28 29 29 29 29 28 29 29 28 27 26 25 25 25 24 24 24 24 23 23 22 22 21 20 19 18 17 18 18 19 19 19 20 21 22 22 21 21 20 20 20 20 20 20 20 20 20 20 21 21 21
30 30 30 30 29 29 30 30 31 31 31 30 29 29 28 28 28 28 28 28 29 29 28 28 28 28 27 26 25 24 24 24 24 24 24 24 23 22 21 21 21 20 19 18 17 17 18 18 19 19 20 20 21 21 21 20 19 19 19 19 19 19 19 20 21 21 21 21 21
29 29 29 29 29 30 30 30 31 31 30 30 30 29 29 29 28 28 28 28 28 28 27 27 26 26 25 25 24 24 24 24 24 24 24 24 23 22 21 21 21 20 19 18 18 18 18 18 19 19 20 20 21 21 20 20 19 18 19 19 18 18 18 19 20 20 20 20 20
Wind_Direction
210 210 209 209 211 213 214 215 214 213 211 210 210 211 210 209 208 208 209 209 209 210 212 214 217 219 219 218 215 213 212 212 208 204 201 201 206 215 223 228 231 233 233 233 232 229 225 220 216 215 214 212 208 205 205 209 211 212 213 212 208 205 203 202 201 204 212 218 219
211 210 209 208 209 210 212 212 211 210 208 207 208 209 209 207 206 206 206 206 207 207 207 208 211 213 212 213 214 214 214 214 212 210 208 207 211 218 226 232 234 235 234 232 230 227 223 220 216 215 215 216 213 211 213 218 219 220 219 217 212 208 206 204 202 200 202 209 214
212 210 208 206 207 208 209 209 208 207 206 205 205 206 206 205 204 204 204 204 204 204 204 204 207 209 210 211 214 218 219 220 219 218 216 215 217 222 229 234 235 234 232 230 227 224 222 220 217 216 215 216 214 214 216 222 224 224 221 215 210 206 206 205 201 196 195 200 205
211 210 207 206 206 206 207 207 206 205 205 204 203 203 204 203 202 202 203 204 204 204 205 205 206 210 213 214 217 220 223 224 225 224 223 221 221 225 230 233 234 232 228 224 223 222 220 219 217 216 215 214 212 209 209 218 224 224 218 211 204 203 205 206 202 198 196 197 200
211 210 208 206 205 206 206 206 206 205 205 204 204 204 204 203 203 202 204 205 206 207 208 208 209 212 216 219 221 223 225 226 226 227 226 224 223 225 228 230 230 228 225 220 218 218 219 219 217 215 214 213 209 203 199 207 217 221 216 209 203 202 205 207 205 202 201 201 201
210 209 209 207 206 206 206 207 206 206 205 205 205 206 206 205 205 204 205 206 207 208 210 212 213 215 218 222 224 225 225 225 225 225 225 222 221 222 224 225 225 225 224 221 218 217 218 219 217 215 213 211 207 201 198 204 211 217 217 212 208 208 210 210 208 208 208 208 207
211 210 209 208 207 207 207 207 207 206 206 207 207 208 209 209 208 207 208 208 208 208 210 213 215 216 218 221 223 224 224 223 223 222 221 219 217 218 220 220 221 222 224 223 221 219 219 219 218 215 212 210 207 203 202 205 212 216 217 213 213 214 215 215 213 213 213 213 211
213 213 211 210 209 208 208 208 207 207 207 208 209 211 212 212 211 211 211 210 209 209 211 214 216 218 220 221 222 223 222 221 220 219 218 216 214 214 217 219 219 221 223 225 224 223 221 220 218 214 211 210 209 207 207 210 215 219 218 214 214 215 218 219 219 218 218 216 213
214 214 214 213 211 210 209 209 208 208 207 209 210 212 213 214 214 214 213 212 212 212 214 216 219 221 222 223 222 222 221 220 218 218 217 215 213 213 215 218 219 220 222 224 225 225 223 220 217 214 211 209 209 210 213 216 220 222 220 216 212 211 216 221 223 224 223 221 217
214 214 214 213 213 212 210 210 210 209 209 210 211 212 213 215 216 216 216 215 215 215 216 218 220 222 222 223 222 221 220 218 218 218 217 215 213 212 214 217 220 221 222 223 224 225 224 221 217 214 211 209 207 208 213 219 222 223 222 218 212 209 211 219 225 228 228 227 223
215 215 215 214 214 212 211 210 210 210 211 211 211 212 212 214 216 217 218 218 217 217 218 220 221 222 223 223 223 221 219 218 217 217 216 215 213 212 213 216 219 221 222 223 223 224 223 222 219 215 212 211 208 208 211 218 222 223 222 219 215 210 209 213 221 227 231 231 230
216 216 216 216 215 213 211 210 210 211 211 211 212 212 212 214 215 217 217 217 217 219 220 221 222 223 223 224 223 222 220 218 216 216 215 215 213 212 212 215 219 222 223 223 224 223 222 222 220 218 215 213 212 211 213 217 221 223 223 221 218 215 212 211 215 221 227 232 233
216 217 217 217 216 214 213 212 212 211 211 211 212 212 212 213 214 215 216 217 218 219 220 221 222 223 224 224 224 222 220 219 217 216 216 216 215 214 213 215 218 221 223 224 224 224 223 222 222 221 219 217 216 216 216 219 222 224 225 224 223 220 217 215 214 217 221 226 230
217 217 218 217 217 215 214 213 213 213 212 212 212 213 212 212 213 215 216 217 219 219 219 219 220 222 223 224 223 222 221 220 219 218 217 218 217 217 216 216 218 220 222 224 225 225 224 223 223 223 222 222 222 221 222 223 225 227 229 229 228 226 224 221 219 219 219 221 225
217 218 218 218 217 216 215 214 214 214 213 213 213 213 212 212 213 214 216 218 218 218 218 218 219 220 222 222 223 223 222 222 220 219 219 219 220 219 219 219 220 221 223 224 226 226 226 225 225 225 225 225 226 227 227 228 229 231 233 234 234 233 231 228 225 224 222 222 224
217 217 218 218 217 217 216 216 215 215 214 214 214 213 213 213 213 214 216 217 218 217 217 218 219 219 220 220 221 222 223 222 222 221 221 221 221 222 222 222 222 223 224 224 225 226 227 227 227 228 228 227 227 229 230 231 232 233 234 235 236 236 235 233 231 229 227 227 227
217 217 217 217 217 217 217 217 216 216 215 215 215 214 213 213 213 214 215 216 216 216 216 218 219 219 219 219 220 221 222 223 223 223 223 223 223 223 224 224 225 225 226 225 225 225 226 227 228 229 229 228 228 228 230 232 233 234 235 236 236 236 236 235 234 233 232 231 230
217 217 217 217 218 218 218 218 217 217 216 216 216 215 215 214 214 214 215 216 216 216 216 217 219 219 219 219 221 222 223 223 224 225 225 225 226 226 226 227 227 228 228 227 226 225 225 226 227 228 228 228 228 229 229 230 232 234 236 237 238 238 238 237 237 236 236 235 234
217 217 217 217 218 219 219 219 218 218 218 217 217 216 216 216 216 215 216 216 217 217 217 217 219 220 221 222 223 224 225 225 226 227 227 228 228 228 229 229 229 229 229 228 227 226 225 226 227 228 228 228 229 229 230 230 231 233 235 238 240 240 241 241 241 240 240 240 239
217 217 217 218 219 219 219 219 219 219 219 218 217 216 216 217 217 217 216 217 217 218 218 219 220 221 222 224 225 226 227 229 228 228 229 229 230 229 230 230 229 229 229 229 227 226 225 225 226 228 229 230 231 231 232 232 232 233 235 237 239 241 242 243 244 243 243 243 243
218 218 219 219 219 219 219 219 219 219 218 217 217 217 217 218 218 218 219 219 219 218 218 220 221 222 223 224 225 226 228 230 230 229 230 230 230 231 231 231 230 229 229 229 227 226 225 224 226 227 230 232 233 234 235 234 234 234 235 237 238 240 242 243 244 245 245 244 244
220 220 220 219 219 219 219 219 219 218 217 216 217 217 217 218 219 220 221 221 220 219 219 220 222 224 225 226 226 227 228 230 230 230 231 231 231 232 231 231 230 229 228 228 227 226 225 224 226 227 230 232 234 236 237 237 237 237 237 237 239 240 241 242 243 244 244 245 246
221 220 219 219 218 218 218 217 217 216 216 215 215 216 216 217 219 220 220 220 220 220 220 221 223 225 226 228 228 228 228 229 230 231 231 231 231 231 231 230 229 228 228 227 227 226 224 223 224 226 228 231 233 234 235 236 237 238 238 239 240 240 241 241 242 242 242 243 244
220 219 218 217 217 216 216 215 215 214 214 213 214 214 215 216 217 218 218 218 219 220 220 221 222 224 226 227 228 228 228 228 229 230 230 231 230 230 229 229 229 228 228 229 228 227 225 223 222 223 225 228 230 232 233 235 235 236 238 238 239 241 242 243 242 241 240 240 241
218 217 216 216 215 214 214 213 213 213 213 213 213 213 214 215 215 216 216 217 219 219 219 219 220 222 223 225 226 228 229 229 229 229 229 229 229 229 228 228 228 228 229 229 228 228 227 226 225 224 225 226 227 229 231 233 234 235 236 237 237 239 241 243 243 243 242 241 240
216 215 215 214 213 212 212 212 212 212 212 212 211 211 212 213 214 214 215 216 217 218 218 218 218 219 220 222 224 225 227 229 229 230 229 228 228 227 227 227 227 228 229 229 228 227 226 226 226 227 227 228 228 228 229 231 233 234 235 236 236 237 238 240 241 243 243 243 242
214 213 213 213 212 211 211 211 212 211 211 210 209 209 210 211 212 213 213 214 215 216 216 216 216 216 218 220 221 222 224 226 227 229 229 229 228 226 226 227 228 229 229 229 228 226 225 224 225 226 229 231 232 232 232 232 234 235 235 236 236 237 237 238 239 240 241 243 243
212 212 211 211 210 210 211 210 210 209 209 209 209 209 209 210 210 211 212 212 213 213 212 212 213 214 215 217 219 220 222 223 224 226 227 228 228 228 228 228 230 231 231 230 227 225 223 223 222 223 227 232 235 236 237 236 236 236 236 236 236 236 237 237 238 239 240 242 243
211 210 210 209 209 209 209 208 208 208 209 208 208 208 208 208 209 210 210 210 209 209 209 209 210 210 211 213 216 218 219 220 222 223 224 225 227 228 229 230 232 233 233 231 228 225 224 223 221 220 221 227 233 237 238 238 237 237 237 237 238 239 239 240 241 241 242 242 244
210 209 208 208 208 208 208 208 208 208 207 207 206 206 205 206 207 208 208 208 208 208 208 209 208 208 210 212 213 215 216 218 221 222 223 224 226 228 230 232 234 235 234 231 228 226 224 223 221 219 218 220 228 234 237 237 237 238 238 240 241 242 243 244 244 244 244 244 244
208 207 207 207 208 208 208 208 208 207 206 204 204 204 204 204 205 206 207 208 208 209 209 210 210 211 212 213 214 215 216 219 220 222 223 225 227 229 231 233 235 235 234 231 228 226 224 223 221 219 218 218 223 229 233 235 236 237 239 241 243 245 246 247 247 247 246 244 243
207 206 206 207 207 208 208 207 206 205 203 203 202 202 203 204 205 207 208 208 208 207 208 209 211 213 215 215 216 217 219 220 221 223 225 227 228 230 232 234 235 236 235 231 228 225 224 223 222 221 220 219 221 225 230 233 235 237 238 241 244 246 247 247 247 247 246 244 242
207 206 206 206 207 207 207 205 204 203 202 201 201 202 202 203 205 206 207 207 207 207 208 210 212 214 215 216 218 219 220 222 223 225 227 228 230 231 232 233 235 236 235 231 227 225 223 222 221 221 220 219 220 224 228 231 234 235 237 239 241 242 244 245 245 244 244 244 243
207 206 206 206 206 206 205 203 202 201 200 200 200 201 202 202 203 204 206 207 208 209 211 213 214 216 218 219 220 220 221 223 224 226 227 228 230 230 231 232 235 236 235 230 227 224 222 221 221 221 220 220 220 223 226 230 232 234 235 237 238 239 239 240 241 241 241 241 241
207 206 205 205 205 204 202 201 200 199 198 198 199 201 202 202 203 204 206 207 208 209 211 213 216 218 220 221 222 222 222 223 224 225 226 227 228 230 231 233 235 236 234 230 226 223 221 220 220 220 220 219 220 222 225 228 231 233 235 237 238 238 238 239 240 240 240 239 238
206 205 204 204 203 202 200 199 198 197 197 198 199 200 201 202 204 205 206 206 206 208 210 212 213 215 217 219 221 222 222 222 223 224 225 226 227 228 231 233 235 235 233 229 225 222 220 219 219 218 218 219 220 223 225 227 230 233 235 237 239 239 239 239 239 240 241 241 239
206 204 203 202 201 200 199 198 196 196 197 199 199 200 200 202 203 205 205 205 205 207 209 210 211 213 216 218 219 220 222 223 222 222 223 225 226 228 230 232 233 233 231 227 224 222 220 219 218 217 217 218 220 222 225 227 230 232 235 237 239 240 240 240 240 240 241 241 240
205 204 202 200 199 198 197 197 196 197 198 199 200 200 201 201 202 203 204 204 204 206 207 209 210 213 215 217 218 219 220 222 221 221 222 223 226 227 228 230 231 231 230 227 223 221 219 218 217 216 216 217 220 222 224 226 229 232 234 237 239 241 241 240 240 240 241 241 240
204 202 201 199 198 197 197 197 198 199 199 200 199 200 201 201 202 203 204 205 206 207 207 208 210 212 214 215 216 216 218 219 220 221 222 223 225 227 228 228 229 230 229 226 223 219 218 217 216 215 215 217 219 221 223 225 228 231 234 237 239 241 242 241 241 241 242 241 240
202 200 199 198 197 197 197 198 199 200 200 200 199 199 200 201 203 203 204 205 207 208 208 209 210 210 211 211 212 213 214 216 217 220 222 224 225 226 227 228 228 229 228 226 221 218 216 215 215 214 214 216 218 220 222 223 226 230 233 236 238 240 241 242 242 243 243 244 244
200 198 198 197 197 198 198 199 200 201 201 200 200 201 201 202 202 202 202 203 205 206 207 208 208 208 207 207 209 210 211 212 214 217 220 223 224 225 226 227 228 228 226 223 220 217 215 214 214 213 213 215 217 219 220 222 224 228 231 234 235 237 239 241 242 243 244 245 245
Height
775 776 777 777 778 779 779 780 780 780 781 781 781 782 782 783 783 784 784 785 785 786 786 787 787 788 788 789 789 790 790 791 792 792 793 793 793 793 793 793 794 795 795 795 796 796 797 797 798 798 799 799 799 800 800 800 800 800 801 801 801 802 802 802 803 803 803 804 804
773 774 775 776 777 777 778 778 779 779 780 780 780 781 781 782 782 783 783 784 785 785 786 786 787 787 787 788 788 789 790 790 791 791 792 792 792 792 792 792 793 794 794 795 795 795 796 796 797 797 798 798 799 799 799 799 800 800 800 800 801 801 801 802 802 803 803 803 803
771 772 773 774 775 775 776 776 777 777 778 779 779 780 780 781 781 782 782 783 784 784 785 785 786 786 786 787 787 788 789 789 790 790 790 791 791 791 791 792 792 793 793 794 794 795 795 795 796 796 797 797 798 798 798 799 799 799 800 800 800 800 801 801 801 802 802 803 803
770 770 771 772 773 774 774 775 775 776 776 777 778 778 779 780 780 781 781 782 783 783 784 784 785 785 785 786 786 787 788 788 789 789 789 790 790 790 790 791 791 792 792 793 793 794 794 795 795 795 796 796 797 797 797 798 798 798 799 799 799 800 800 800 801 801 801 802 802
768 768 769 770 771 772 772 773 774 775 775 776 776 777 778 778 779 780 780 781 781 782 782 783 783 784 784 785 785 786 786 787 787 788 788 789 789 789 790 790 790 791 791 792 792 793 793 793 794 794 795 795 796 796 797 797 797 797 798 798 798 799 799 799 800 800 800 801 801
765 766 767 768 769 770 771 772 772 773 774 775 775 776 776 777 778 778 779 779 780 780 781 782 782 783 783 784 784 785 785 786 786 787 787 788 788 788 789 789 790 790 790 791 791 792 792 792 793 793 794 794 795 795 795 796 796 796 797 797 797 798 798 798 799 799 800 800 800
764 765 766 767 768 769 769 770 771 771 772 773 774 774 775 775 776 777 777 778 779 779 780 780 781 781 782 782 783 784 784 785 785 785 786 786 787 787 788 788 789 789 789 790 790 790 791 791 792 792 793 793 794 794 794 795 795 795 796 796 796 797 797 798 798 798 799 799 800
762 763 764 765 766 766 767 768 769 770 770 771 772 772 773 774 775 775 776 777 777 778 778 779 779 780 781 781 782 782 783 783 784 785 785 785 786 786 786 787 787 788 788 789 789 789 790 790 791 791 791 792 792 793 793 794 794 794 795 795 795 796 796 797 797 797 798 798 799
760 761 762 763 764 765 765 766 767 768 769 769 770 770 771 772 773 774 774 775 776 776 777 777 778 779 779 780 780 781 782 782 782 783 784 784 785 785 785 786 786 787 787 787 788 788 789 789 790 790 790 791 791 792 792 792 793 793 794 794 795 795 795 796 796 796 797 797 798
758 759 760 761 762 763 764 765 765 766 767 768 768 769 770 770 771 772 772 773 774 775 776 776 776 777 778 779 779 780 780 781 781 782 782 783 783 784 784 785 785 785 786 786 786 787 787 788 788 789 789 790 790 790 791 791 791 792 793 793 794 794 794 795 795 795 796 796 797
756 757 758 759 760 761 762 763 764 765 765 766 767 767 768 769 769 770 771 772 773 774 774 775 775 775 776 777 778 778 779 779 780 780 781 781 782 782 783 783 783 784 784 785 785 785 786 786 787 787 788 788 789 789 790 790 790 791 791 792 792 793 793 794 794 795 795 795 796
755 756 757 758 759 760 761 762 762 763 764 764 765 766 766 767 768 769 770 771 771 772 772 773 774 774 775 775 776 777 777 778 778 779 779 780 780 781 781 782 782 782 783 783 784 784 785 785 785 786 786 787 788 788 788 789 789 789 790 790 791 791 792 792 793 793 794 794 795
754 755 756 757 758 759 760 760 761 761 762 763 763 764 765 765 766 767 768 769 770 770 771 771 772 773 773 774 775 775 776 776 777 777 778 778 779 780 780 780 781 781 781 782 782 783 783 784 784 785 785 786 786 786 787 787 788 788 789 789 790 790 791 791 792 792 793 793 793
753 754 755 755 756 757 758 759 759 760 760 761 762 763 763 764 765 766 766 767 768 769 769 770 770 771 772 772 773 774 774 775 775 776 776 777 777 778 779 779 779 780 780 780 781 781 782 782 783 783 784 784 785 785 785 786 786 787 787 788 788 789 789 790 790 791 791 792 792
752 752 753 754 755 755 756 757 757 758 759 760 760 761 762 763 764 765 765 766 766 767 768 768 769 770 770 771 772 772 773 773 774 774 775 775 776 776 777 777 778 778 779 779 780 780 780 781 781 782 782 783 783 784 784 785 785 785 786 786 787 787 788 789 789 790 790 790 791
750 750 751 752 752 753 754 755 755 756 757 758 759 760 761 762 762 763 764 765 765 766 766 767 767 768 769 770 770 770 771 772 772 773 773 774 774 775 775 776 776 777 777 778 778 779 779 780 780 781 781 782 782 782 783 783 784 784 785 785 785 786 786 787 788 788 789 789 789
748 748 749 750 750 751 751 752 753 754 755 755 757 758 759 760 761 762 762 763 764 764 765 765 766 766 767 768 768 769 770 770 770 771 771 772 772 773 774 774 775 775 776 776 777 777 778 778 779 780 780 780 781 781 782 782 782 783 783 783 784 785 785 785 786 786 787 787 788
745 746 747 747 748 748 749 750 750 751 752 754 755 756 757 758 759 760 760 761 762 762 763 764 764 765 765 766 767 767 768 768 769 769 770 770 771 771 772 773 773 774 775 775 775 776 776 777 777 778 779 779 780 780 780 781 781 781 781 782 782 783 783 784 785 785 785 786 786
743 744 745 745 745 746 747 748 749 750 750 751 753 754 755 756 757 758 759 760 760 761 761 762 763 763 764 765 765 765 766 766 767 767 768 769 769 770 770 771 772 772 773 774 774 775 775 775 776 776 777 778 778 779 779 779 780 780 780 781 781 781 782 782 783 783 784 784 784
740 741 741 742 743 744 745 746 747 748 749 750 751 752 753 754 755 756 757 757 758 759 760 761 761 762 762 763 764 764 765 765 766 766 767 767 768 769 769 770 770 771 771 772 772 773 774 774 775 775 775 776 776 777 777 778 778 779 779 780 780 780 781 781 781 782 782 783 783
737 738 738 739 740 741 743 744 745 746 747 748 749 750 751 752 753 754 755 755 757 758 759 759 760 760 761 761 762 763 763 764 765 765 765 766 767 767 768 769 769 770 770 770 771 771 772 773 773 774 774 775 775 775 776 776 777 777 778 778 779 779 779 780 780 780 781 781 782
734 735 736 737 739 740 741 742 743 745 746 747 748 749 750 750 751 752 753 755 755 756 757 758 758 759 759 760 760 761 762 763 763 764 765 765 765 766 767 767 768 768 769 769 769 770 770 771 772 772 773 773 773 774 774 775 775 776 776 776 777 777 778 778 779 779 780 780 780
732 733 735 736 737 738 740 741 742 743 744 745 746 747 748 749 750 751 752 753 754 755 755 756 757 757 758 759 760 760 761 762 762 763 763 764 765 765 765 766 766 767 767 767 768 769 769 770 770 771 771 772 772 772 773 773 774 774 775 775 775 776 776 777 777 778 778 779 779
730 732 733 735 736 737 738 739 740 741 742 743 745 745 746 747 748 750 750 751 752 753 754 755 755 756 757 758 759 760 760 760 761 761 762 763 763 764 764 765 765 765 765 766 767 767 768 768 769 769 770 770 770 771 771 772 772 773 773 774 774 775 775 775 776 776 777 777 778
729 730 732 733 734 735 736 737 738 739 740 741 742 744 745 746 747 748 749 750 750 751 752 753 754 755 756 757 757 758 759 759 759 760 760 761 762 762 763 763 764 764 765 765 765 766 767 767 767 768 768 769 769 770 770 770 771 771 772 772 773 773 773 774 774 775 775 775 776
727 729 730 731 732 733 734 735 735 737 738 740 741 742 743 744 745 746 747 748 749 750 751 752 753 754 755 755 756 756 757 758 758 759 759 760 760 761 761 762 762 763 763 764 765 765 766 766 767 767 767 767 768 768 768 769 769 770 770 770 771 771 772 772 772 773 773 774 774
725 726 728 729 730 731 732 732 734 735 736 738 739 740 741 743 744 745 745 746 747 748 749 750 751 752 753 754 754 755 755 756 756 757 758 758 759 759 760 760 760 761 761 762 763 764 765 765 766 766 766 766 766 767 767 767 768 768 768 769 769 770 770 770 770 771 771 772 773
723 724 725 727 728 729 729 730 732 733 735 736 737 738 740 741 742 743 744 745 746 747 748 749 750 750 751 752 752 753 754 754 755 756 756 757 758 758 758 759 759 759 760 761 762 763 764 765 765 765 766 765 765 766 766 766 766 767 767 767 767 768 768 768 769 769 770 770 771
721 722 723 725 725 726 727 729 730 731 732 734 735 737 738 740 740 741 742 743 745 745 746 747 748 749 750 750 750 751 752 753 753 754 755 755 756 756 756 757 757 758 759 760 761 762 763 763 764 765 765 765 765 765 765 765 765 765 765 765 765 766 766 766 767 767 768 769 769
719 720 721 722 723 724 725 726 727 729 730 732 734 735 736 738 739 739 740 741 742 743 744 745 746 746 747 748 748 749 750 751 752 752 753 754 754 754 755 755 755 756 757 758 759 760 761 762 763 763 764 765 764 764 764 764 764 764 764 764 764 765 765 765 765 766 767 767 768
717 718 720 720 721 722 723 724 725 727 729 730 732 733 734 735 736 737 738 739 740 741 742 743 744 744 745 745 746 747 748 749 750 750 751 751 752 752 753 753 754 755 755 757 758 759 760 760 761 762 763 763 763 763 763 763 763 763 763 763 763 763 764 764 764 765 765 766 766
716 717 718 719 720 720 721 723 725 726 727 729 730 731 732 733 734 735 736 737 738 740 740 741 742 742 743 744 745 745 746 747 748 748 749 749 750 750 751 752 752 753 754 755 756 757 758 759 759 760 761 762 762 762 762 762 762 762 762 762 762 762 763 763 763 763 764 764 765
715 716 716 717 718 719 720 722 723 725 726 727 728 729 730 730 732 733 734 735 736 737 738 739 739 740 741 742 743 744 744 745 745 746 747 748 748 749 750 750 750 751 752 753 755 755 756 757 758 759 759 760 761 761 761 761 761 761 761 761 761 761 762 762 762 762 763 763 763
714 715 715 716 717 718 719 721 722 723 724 725 726 727 727 729 730 731 732 733 734 735 736 736 737 738 739 740 740 741 742 743 744 745 745 746 747 747 748 748 749 749 750 752 753 754 755 755 756 757 758 759 759 760 760 760 760 760 760 760 760 761 761 761 761 761 762 762 762
712 713 713 714 715 717 718 719 720 721 722 723 724 725 725 726 727 728 730 730 732 733 734 735 736 737 738 739 739 740 741 742 742 743 744 745 745 746 746 746 747 748 749 750 751 752 753 754 755 755 756 757 758 758 758 759 759 759 759 760 760 760 760 760 760 760 761 761 761
710 711 712 712 714 715 716 718 719 720 720 721 722 723 724 725 725 726 727 729 730 732 733 734 735 736 737 737 738 739 739 740 740 741 742 743 744 744 745 745 745 746 748 749 750 750 751 752 753 754 755 756 756 756 757 757 757 758 758 758 759 759 759 759 760 760 760 760 760
708 709 710 711 712 713 715 716 717 718 718 719 719 720 721 722 724 725 726 728 729 730 731 732 733 734 734 735 735 736 737 738 739 740 740 741 742 742 743 743 744 745 746 747 748 749 750 751 752 753 754 754 755 755 755 756 756 756 757 757 757 758 758 758 758 759 759 759 759
706 707 708 709 710 711 712 714 715 715 715 716 717 718 719 720 722 723 724 725 726 727 728 730 730 731 732 733 734 735 736 737 738 738 739 740 740 741 741 742 743 744 745 746 747 748 749 750 750 751 752 753 753 754 754 755 755 755 756 756 756 756 757 757 757 757 757 757 757
704 705 705 707 708 709 710 711 712 712 713 714 715 717 718 719 720 721 722 723 724 725 726 727 728 729 730 731 733 734 735 735 736 737 737 738 739 739 740 741 741 742 743 745 745 746 747 748 749 750 750 751 751 752 753 753 754 754 755 755 755 755 756 756 756 756 756 755 756
701 703 704 705 706 707 708 709 710 710 711 713 714 715 716 717 718 719 720 722 723 724 725 725 726 728 729 730 732 733 733 734 735 735 736 737 737 738 739 740 740 741 742 743 744 745 746 747 748 748 749 750 750 751 751 752 752 753 753 754 754 755 755 755 755 755 754 754 754
700 701 702 703 704 705 706 707 708 709 710 711 712 713 714 715 717 718 719 720 721 722 723 725 726 727 728 729 730 731 732 733 734 734 735 735 736 737 738 738 739 740 741 742 743 744 745 745 746 747 748 749 749 750 750 751 751 751 752 752 753 753 753 753 753 753 753 753 753